Weather in Costa del Sol

Spain     36°39′50″N   4°31′15″W
temp.,
°C
wind,
m/s
gust,
m/s
humid.,
%
clouds,
%
prec.,
mm/h
press.,
hPa
HPBL,
m
28 september, tue
tue2823:00+22ese1150100 0.0 1021114
02:00+21e1154100 0.0 102170
05:00+20nnw115439 0.0 102017
08:00+20nnw115144 0.0 102017
11:00+24wsw113772 0.0 1021377
14:00+28s323127 0.0 10201011
17:00+28sse323286 0.0 10191116
20:00+25se114113 0.0 1019151
29 september, wed
wed2923:00+23nw11410 0.0 102146
02:00+22nnw11410 0.0 102117
05:00+21nnw22400 0.0 102028
08:00+20n22410 0.0 102125
11:00+25sse11311 0.0 1022339
14:00+27sse32300 0.0 1022766
17:00+27se33364 0.0 1021620
20:00+24se22451 0.0 1022201
30 september, thu
thu3023:00+22ese12495 0.0 1023157
02:00+21sse12530 0.0 1023198
05:00+20w01591 0.0 102355
08:00+19nnw1168100 0.0 102343
11:00+23sse24645 0.0 1024715
14:00+25sse455468 0.0 10241017
17:00+25sse34545 0.0 1022876
20:00+22se22665 0.0 1022322
1 october, fri
fri123:00+21ese127642 0.0 1023288
02:00+20ese128065 0.0 1023283
05:00+20ese1284100 0.0 1022333
08:00+20se118472 0.1 1022335
11:00+22sse127268 0.1 1022690
14:00+24sse4358100 0.1 1022982
17:00+24sse32584 0.0 1020839
20:00+22sse22690 0.0 1020279
2 october, sat
sat223:00+20se127977 0.0 1021246
02:00+19ese1183100 0.0 1021237
05:00+19ne11838 0.0 1019189
08:00+19nnw008325 0.0 1019125
11:00+22s116865 0.0 1020457
14:00+25sse3255100 0.0 1019854
17:00+25sse325395 0.0 1017731
20:00+22se226560 0.0 1016203